{"data":{"norad_id":66165,"intl_designator":"2025-240V","name":"STARLINK-35575","alt_names":[],"object_type":"PAYLOAD","status":"ACTIVE","operator":null,"country":"US","launch_date":"2025-10-25","launch_site_code":"AFWTR","launch_vehicle":null,"mission":null,"orbit_class":"UNKNOWN","rcs_meters":null,"size_class":null,"mass_kg":null,"dimensions":null,"purposes":["comms"],"wikipedia_slug":null,"has_3d_model":false,"image_url":null,"decayed_at":null,"tle_current":{"epoch":"2026-09-20T13:29:12.206976Z","epoch_age_seconds":95054,"freshness":"FRESH","line1":"1 66165U 25240V   26263.56194684  .00012162  00000+0  37037-3 0  9993","line2":"2 66165  53.1580 233.4302 0001739  92.1774 267.9427 15.34411168 51888","mean_motion":15.34411168,"eccentricity":0.0001739,"inclination_deg":53.158,"raan_deg":233.4302,"arg_perigee_deg":92.1774,"mean_anomaly_deg":267.9427,"bstar":0.00037037,"rev_number":5188,"period_min":93.847075023375,"perigee_km":461.48043041345,"apogee_km":463.85966310432,"semimajor_km":6840.8070467589,"source":"CELESTRAK","updated_at":"2026-09-21T09:00:35.816188Z"}}}